STARLINK-5141, 55500

Orbit data source: Space-Track

STARLINK-5141, 55500 is a payload satellite owned by SpaceX/Seattle (US) in LEO that was launched on Thu, 02 Feb 2023 UTC via an FALCON 9 launch vehicle from the Air Force Eastern Test Range (AFETR). Payload-class satellites include a variety of spacecraft equipped with specific instruments for various scientific and technological missions. These include communications satellites like Starlink; space stations such as the ISS; scientific satellites like the Hubble; Earth observation satellites from companies like Planet Labs, Umbra, and HawkEye 360; GPS; miniature CubeSats for education and research; and military/defense satellites.

Loading next visibility...
Identifier
55500, 2023-015BD
Orbit
LEO
Country
Flag of USUS
Related business
Manufacturer
SpaceX/Seattle
Mission
Operational Commercial Communications
Bus & Motor
STARLINK, Unknown motor
Mass
305 kg wet, ~290 kg dry
Launch date (UTC)
2023-02-02 (3 years ago)
Launch vehicle
FALCON 9
Launch site
Air Force Eastern Test Range (AFETR)
Object type
Payload
Rocket body
Debris
Shape & HBR
Box + 1 Pan, 10.1 m
Radar Cross Section
13.562 m², Large (>1 m²)

Expand to show TLE details & history
Last TLE update: 10 hours ago

TLE from 10 hours ago
0 STARLINK-5141
1 55500U 23015BD  25288.60496604  .00000442  00000-0  47790-4 0  9997
2 55500  43.0059  46.9657 0001326 270.2444  89.8246 15.02533769148786
Epoch: 2025-10-15T14:31Z
TLE epoch observation values (Epoch: 2025-10-15T14:31:09.065Z)
Latitude
-0.00006°
Longitude
164.80121°
Altitude
558.862 km
Speed
7.584 km/s
True Right ascension
03h 07m 51s
True Declination
0° 00' 00"
Sunlit
Object was in full shadow at epoch
Visualization orbit readout
Latitude
Unknown
Longitude
Unknown
Altitude
Unknown
Speed
Unknown
Apparent Right ascension
Unknown
Apparent Declination
Unknown
Sunlit
N/A
Visualization observer readout
Local Sidereal Time
18:46:50
Azimuth
Unknown
Elevation
Unknown
Doppler factor
Unknown
Orbital elements
Apogee altitude
561.929 km
Perigee altitude
560.089 km
Semi-major axis
6,939.146 km
Eccentricity
0.00013
Inclination
43.0059°
RAAN
46.9657°
Arg. of periapsis
270.2444°
True anomaly
89.83979°
Mean anomaly
89.8246°
Eccentric anomaly
89.8322°
Mean motion
3.75478 °/min
Orbital period
95.88 mins
BSTAR
0.00004779
Loading maneuver chart data...
Computing Atmospheric mass density...
Loading historical data...
Loading historical data...
Loading historical data...
Loading historical data...
Loading historical data...
Loading historical data...
Loading historical data...

Documentation

Showing up to 5 results
|